Content
SEND FEEDBACK

Daily
Averages
Monthly
Summary
United States of America

SIOUX FALLS, SOUTH DAKOTA


Home > North America > United States > South Dakota
Elevation: 1418 feet     Latitude: 43 34N     Longitude: 096 44W

WEATHER
 
SELECT A DAY
Number of Records: 202,876;   Date Range: 1/1/95 - 7/22/14
 
SHARE

PRINT THIS DATA

[ ← Previous Day ]
WEATHER ALMANAC - FEBRUARY 3, 2013
[ Next Day → ]
[ °C ]   °F
Weather ElementAverageHighLow
Temperature21.6 °F35.1 °F (3:56 pm)10.9 °F (4:56 am)
Dewpoint15.3 °F26.1 °F (3:56 pm)6.1 °F (4:56 am)
Humidity77 %88 % (11:56 pm)62 % (10:56 am)
Barometer30.00 in30.21 in (2:56 am)29.79 in (5:56 pm)
Wind Speed8.4 mph18.4 mph (11:29 pm)
Weather ElementAverage
Visibility10 mi
Wind DirectionSE (131.3 °)

Weather ElementTotal
Precipitation---
Heating Degree Days42 (Base 65)
Averaged from 24 records on February 3, 2013
WEATHER CONDITIONS BREAKOUT
WIND DIRECTION BREAKOUT
WEATHER BY HOUR - FEBRUARY 3, 2013
[ °C ]   °F
Local TimeTemperatureDewpointHumidityBarometerVisibilityWind DirectionWind SpeedGust SpeedPrecipitationEventsConditions
1:56 AM15.8 °F8.6 °F73 %30.13 in10.0 miNW (320°)16.1 mphClear
2:56 AM12.9 °F7.0 °F77 %30.21 in10.0 miWNW (300°)8.1 mphClear
3:56 AM12.9 °F7.0 °F77 %30.21 in10.0 miNW (310°)12.7 mphClear
4:56 AM10.9 °F6.1 °F81 %30.20 in10.0 miWNW (290°)6.9 mphClear
5:56 AM10.9 °F6.1 °F81 %30.18 in10.0 miWest (270°)4.6 mphMostly Cloudy
6:56 AM12.2 °F6.8 °F79 %30.07 in10.0 miCalmOvercast
7:56 AM15.1 °F10.0 °F80 %30.15 in10.0 miWSW (250°)3.5 mphOvercast
8:56 AM17.1 °F10.9 °F77 %30.12 in10.0 miSW (220°)3.5 mphMostly Cloudy
9:56 AM21.0 °F12.9 °F71 %30.14 in10.0 miCalmScattered Clouds
10:56 AM24.1 °F12.9 °F62 %30.09 in10.0 miVariable4.6 mphPartly Cloudy
11:56 AM27.0 °F16.0 °F63 %30.04 in10.0 miSSE (150°)6.9 mphPartly Cloudy
12:56 PM30.0 °F19.0 °F64 %30.00 in10.0 miSouth (180°)10.4 mphClear
1:56 PM32.0 °F21.9 °F66 %29.96 in10.0 miSSE (150°)8.1 mphPartly Cloudy
2:56 PM33.1 °F24.1 °F70 %29.91 in10.0 miSE (140°)9.2 mphScattered Clouds
3:56 PM35.1 °F26.1 °F70 %29.88 in10.0 miEast (100°)4.6 mphScattered Clouds
4:56 PM30.9 °F26.1 °F82 %29.87 in10.0 miENE (60°)9.2 mphScattered Clouds
5:56 PM28.4 °F24.8 °F86 %29.79 in10.0 miNE (50°)11.5 mphScattered Clouds
6:56 PM27.0 °F21.9 °F81 %29.87 in10.0 miENE (60°)12.7 mphScattered Clouds
7:56 PM24.1 °F19.9 °F84 %29.86 in10.0 miEast (80°)5.8 mphScattered Clouds
8:56 PM24.1 °F19.0 °F81 %29.86 in10.0 miNE (50°)8.1 mphOvercast
9:56 PM21.9 °F18.0 °F85 %29.87 in10.0 miNE (40°)11.5 mphPartly Cloudy
10:56 PM19.0 °F15.1 °F85 %29.88 in10.0 miNE (50°)10.4 mphMostly Cloudy
11:29 PM17.6 °F14.0 °F86 %29.84 in10.0 miNE (40°)18.4 mphMostly Cloudy
11:56 PM16.0 °F12.9 °F88 %29.92 in10.0 miNE (40°)15.0 mphOvercast
Hourly data recorded from KFSD, located miles away from Sioux Falls, South Dakota







STORIES FROM OUR PARTNERS